Weather History for KAPF - August, 2012

Change the Weather History Date:

Thursday, August 16, 2012

  Actual Average Record
Temperature  
Mean Temperature 85 °F 83 °F  
Max Temperature 91 °F 91 °F 96 °F (1979)
Min Temperature 78 °F 75 °F 67 °F (1961)
Degree Days  
Heating Degree Days 0 0  
Month to date heating degree days 0 0  
Since 1 June heating degree days 0 0  
Since 1 July heating degree days 0 0  
Cooling Degree Days 20 18  
Month to date cooling degree days 302 288  
Year to date cooling degree days 2621 2382  
Since 1 June cooling degree days 1354 1354  
Growing Degree Days 34 (Base 50)    
Moisture  
Dew Point 76 °F    
Average Humidity 78    
Maximum Humidity 91    
Minimum Humidity 64    
Precipitation  
Precipitation 1.00 in 0.28 in 3.38 in (2003)
Month to date precipitation 5.15 4.45  
Year to date precipitation 23.26 32.39  
Snow  
Snow 0.00 in - - ()
Month to date snowfall 0.0  
Since 1 June snowfall 0.0  
Since 1 July snowfall 0.0  
Snow Depth 0.00 in    
Sea Level Pressure  
Sea Level Pressure 30.05 in    
Wind  
Wind Speed 2 mph (ESE)    
Max Wind Speed 24 mph    
Max Gust Speed 30 mph    
Visibility 8 miles    
Events Rain , Thunderstorm    
T = Trace of Precipitation, MM = Missing Value Source: NWS Daily Summary

Daily Weather History Graph

Daily Weather History Graph

Search for Another Location

Airport or City:

Trip Planner

Search our weather history database for the weather conditions in past years. The results will help you decide how hot, cold, wet, or windy it might be!

Date:

Astronomy

Aug. 16, 2012 Rise Set
Actual Time 7:00 AM EDT 8:01 PM EDT
Civil Twilight 6:36 AM EDT 8:25 PM EDT
Nautical Twilight 6:07 AM EDT 8:54 PM EDT
Astronomical Twilight 5:38 AM EDT 9:23 PM EDT
Moon 5:57 AM EDT (8/16) 7:13 PM EDT (8/16)
Length of Visible Light 13h 49m
Length of Day
13h 01m
Waning Crescent, 1% of the Moon is Illuminated
Aug 16
Waning Crescent
Aug 17
New
Aug 24
First Quarter
Aug 31
Full
Sep 8
Last Quarter

Hourly Weather History & Observations

Time (EDT) Temp. Heat Index Dew Point Humidity Pressure Visibility Wind Dir Wind Speed Gust Speed Precip Events Conditions
12:53 AM 79.0 °F - 75.0 °F 88% 30.04 in 10.0 mi ENE 4.6 mph - N/A   Clear
1:53 AM 79.0 °F - 75.0 °F 88% 30.04 in 10.0 mi Calm Calm - N/A   Mostly Cloudy
2:53 AM 78.1 °F - 75.9 °F 93% 30.02 in 10.0 mi ENE 5.8 mph - 0.00 in   Clear
3:53 AM 78.1 °F - 75.9 °F 93% 30.01 in 10.0 mi Calm Calm - N/A   Partly Cloudy
4:53 AM 79.0 °F - 75.9 °F 90% 30.00 in 10.0 mi Calm Calm - N/A   Clear
5:53 AM 79.0 °F - 75.9 °F 90% 30.01 in 10.0 mi Calm Calm - N/A   Partly Cloudy
6:53 AM 78.1 °F - 75.9 °F 93% 30.03 in 9.0 mi ENE 3.5 mph - N/A   Clear
7:53 AM 80.1 °F 85.8 °F 77.0 °F 90% 30.04 in 8.0 mi Calm Calm - N/A   Clear
8:53 AM 84.9 °F 96.6 °F 78.1 °F 80% 30.06 in 10.0 mi NNE 3.5 mph - N/A   Clear
9:53 AM 88.0 °F 100.2 °F 77.0 °F 70% 30.08 in 10.0 mi Calm Calm - N/A   Scattered Clouds
10:53 AM 84.9 °F 94.1 °F 75.9 °F 74% 30.09 in 6.0 mi South 5.8 mph - 0.00 in Rain Light Rain
11:15 AM 84.2 °F 94.1 °F 77.0 °F 79% 30.08 in 10.0 mi SSE 4.6 mph - 0.00 in Thunderstorm Thunderstorm
11:35 AM 86.0 °F 96.9 °F 77.0 °F 74% 30.08 in 10.0 mi SE 6.9 mph - 0.00 in   Clear
11:53 AM 87.1 °F 97.3 °F 75.9 °F 69% 30.08 in 10.0 mi South 3.5 mph - 0.00 in   Scattered Clouds
12:01 PM 86.0 °F 95.1 °F 75.2 °F 70% 30.09 in 10.0 mi Calm Calm - N/A   Scattered Clouds
12:53 PM 87.1 °F 99.8 °F 78.1 °F 74% 30.08 in 8.0 mi Calm Calm - 0.01 in Rain Light Rain
1:03 PM 87.8 °F 99.7 °F 77.0 °F 70% 30.09 in 10.0 mi Calm Calm - 0.00 in Thunderstorm Thunderstorm
1:20 PM 87.8 °F 99.7 °F 77.0 °F 70% 30.07 in 10.0 mi West 6.9 mph - 0.00 in Thunderstorm Thunderstorm
1:53 PM 86.0 °F 95.1 °F 75.0 °F 70% 30.07 in 10.0 mi SSE 3.5 mph - 0.00 in Thunderstorm Thunderstorm
2:20 PM 80.6 °F 85.4 °F 73.4 °F 79% 30.08 in 0.5 mi ENE 23.0 mph 29.9 mph 0.39 in Rain , Thunderstorm Heavy Thunderstorms and Rain
2:27 PM 78.8 °F - 73.4 °F 83% 30.08 in 0.2 mi NE 8.1 mph 29.9 mph 0.70 in Rain , Thunderstorm Heavy Thunderstorms and Rain
2:37 PM 80.6 °F 85.4 °F 73.4 °F 79% 30.07 in 0.8 mi NE 4.6 mph - 0.92 in Rain , Thunderstorm Heavy Thunderstorms and Rain
2:45 PM 80.6 °F 86.2 °F 75.2 °F 84% 30.07 in 3.0 mi Calm Calm - 0.98 in Rain , Thunderstorm Heavy Thunderstorms and Rain
2:53 PM 82.9 °F 90.8 °F 75.9 °F 79% 30.05 in 5.0 mi Calm Calm - 0.99 in Rain Light Rain
3:53 PM 88.0 °F 98.5 °F 75.9 °F 67% 30.02 in 10.0 mi Calm Calm - 0.00 in   Clear
4:53 PM 89.1 °F 99.1 °F 75.0 °F 63% 30.02 in 10.0 mi Calm Calm - N/A   Mostly Cloudy
5:53 PM 88.0 °F 97.5 °F 75.0 °F 65% 30.01 in 10.0 mi Calm Calm - N/A   Mostly Cloudy
6:53 PM 86.0 °F 95.1 °F 75.0 °F 70% 30.00 in 10.0 mi WSW 4.6 mph - N/A   Partly Cloudy
7:53 PM 86.0 °F 96.9 °F 77.0 °F 74% 30.01 in 10.0 mi Calm Calm - N/A   Partly Cloudy
8:53 PM 82.9 °F 93.8 °F 79.0 °F 88% 30.02 in 10.0 mi SSE 3.5 mph - N/A   Clear
9:53 PM 82.0 °F 91.0 °F 78.1 °F 88% 30.04 in 10.0 mi South 3.5 mph - N/A   Clear
10:53 PM 82.0 °F 89.4 °F 75.9 °F 82% 30.05 in 10.0 mi SSE 3.5 mph - N/A   Clear
11:53 PM 82.0 °F 90.2 °F 77.0 °F 85% 30.06 in 10.0 mi Calm Calm - N/A   Clear